{"data":{"norad_id":57870,"epoch":"2026-09-20T07:45:13.716288Z","epoch_age_seconds":150468,"freshness":"FRESH","line1":"1 57870U 23144G   26263.32307542 -.00001834  00000+0 -57167-4 0  9993","line2":"2 57870  43.0029 266.0528 0001762 304.6698  55.3987 15.27560714167412","mean_motion":15.27560714,"eccentricity":0.0001762,"inclination_deg":43.0029,"raan_deg":266.0528,"arg_perigee_deg":304.6698,"mean_anomaly_deg":55.3987,"bstar":-5.7167e-5,"rev_number":16741,"period_min":94.267938865047,"perigee_km":481.8978947037,"apogee_km":484.31579703498,"semimajor_km":6861.2438458693,"source":"CELESTRAK","updated_at":"2026-09-21T09:00:33.716955Z"}}